Regional Weather Roundup
Issued by NWS Newport/Morehead, NC

Current Version | Previous Version | Text Only | Print | Product List | Glossary Off
Versions: 1 2 3 4 5 6 7 8 9 10 11 12 13 14 15 16 17 18 19 20 21 22 23 24 25 26 27 28 29 30 31 32 33 34 35 36 37 38 39 40 41 42 43 44 45 46 47 48 49 50
000 ASUS42 KMHX 271614 RWRMHX WEATHER ROUNDUP FOR EASTERN NORTH CAROLINA NATIONAL WEATHER SERVICE NEWPORT/MOREHEAD CITY NC 1200 PM EDT SAT MAY 27 2017 NOTE: "FAIR" INDICATES FEW OR NO CLOUDS BELOW 12,000 FEET WITH NO SIGNIFICANT WEATHER AND/OR OBSTRUCTIONS TO VISIBILITY NCZ015>017-031-032-045>047-102-103-271700- NORTH COAST CITY SKY/WX TMP DP RH WIND PRES REMARKS EDENTON MOSUNNY 82 65 57 SW5 29.93S ELIZABETH CITY PTSUNNY 80 66 62 SW8 29.92S KITTY HAWK MOSUNNY 80 60 50 CALM 29.91S MANTEO SUNNY 81 64 57 S7 29.92F $$ NCZ045>047-081-094-103-104-271700- CENTRAL COAST CITY SKY/WX TMP DP RH WIND PRES REMARKS FRISCO SUNNY 81 68 64 SW8 29.95F $$ NCZ095-097-098-100-101-271700- SOUTHERN COAST CITY SKY/WX TMP DP RH WIND PRES REMARKS BEAUFORT SUNNY 80 67 64 SW14 29.96S CEDAR ISLAND NOT AVBL JACKSONVILLE SUNNY 85 66 53 S9G16 29.93F PINEY ISLAND SUNNY N/A N/A N/A SW12 29.94F WILMINGTON SUNNY 86 65 49 SW13 29.95F $$ NCZ011>013-027>030-043-044-078>080-089-090>093-098-271700- COASTAL PLAIN CITY SKY/WX TMP DP RH WIND PRES REMARKS AHOSKIE NOT AVBL CLINTON SUNNY 82 67 59 W3 29.95S ELIZABETHTOWN SUNNY 85 64 48 W10 29.96S GOLDSBORO NOT AVBL GREENVILLE SUNNY 82 63 51 CALM 29.95F HAVELOCK SUNNY 85 63 47 S12G18 29.95F KENANSVILLE SUNNY 84 66 54 SW7 29.94S KINSTON SUNNY 84 64 51 SW7 29.94F NEW BERN SUNNY 84 66 54 SW10 29.95F RICHLANDS SUNNY 86 67 52 SW9 29.95S ROCKY MOUNT SUNNY 82 63 52 CALM 29.93F WASHINGTON SUNNY 83 65 53 SW8 29.93F WHITEVILLE SUNNY 85 66 53 SW7 29.96S $$ AMZ130-135-150-152-154-156-158-170-250-252-270-ANZ085-086-088-633-658-670-271700- MARINE OBSERVATIONS STATION/POSITION TIME TEMP WIND PRES WAVE SWELL AIR SEA DIR/SP/G HT/PER HT/PER (UTC) (F) (DEG/KT/KT) (MB) (FT/S) (FT/S) CHESAPEAKE LIGHT NOT AVBL 64 E VA BEACH 1550 66 64 160/ 4/ 6 1013.8 3/ 8 3/ 8 DUCK 1548 71 63 120/ 4/ 6 1012.9 2 E DUCK 1600 66 N/A 1/ 8 OREGON INLET 1548 180/ 10/ 12 N/A 13E OREGON INLT 1548 69 N/A 3/ 7 2/ 7 HATTERAS CG 1548 77 73 200/ 8/ 12 1014.1 DIAMOND BUOY 1550 76 78 220/ 12/ 12 1014.3 3/ 7 3/ 7 CAPE LOOKOUT 1600 77 230/ 11/ 14 1014.3 BEAUFORT LAB 1548 78 71 220/ 7/ 10 1013.8 30 SE NEW RVR IN 1508 76 77 240/ 12/ 14 1015.1 30 SE NEW RVR IN 1543 77 N/A 3/ 8 27 SE WRIGHTSVLE 1508 75 77 210/ 14/ 17 1014.8 5 SE WRIGHTSVLE 1508 75 74 200/ 10/ 16 1014.7 225 S CAPE HAT 1550 76 77 250/ 10/ 12 1017.3 3/ 7 3/ 7 41 SE CHARLESTON 1550 75 75 230/ 12/ 16 1016.4 3/ 7 2/ 7 $$

USA.gov is the U.S. government's official web portal to all federal, state and local government web resources and services.